Regional Weather Roundup
Issued by NWS

Home | Current Version | Previous Version | Text Only | Print | Product List | Glossary On
Versions: 1 2 3 4 5 6 7 8 9 10 11 12 13 14 15 16 17 18 19 20 21 22 23 24 25 26 27 28 29 30 31 32 33 34 35 36 37 38 39 40 41 42 43 44 45 46 47 48 49 50
000
ASUS44 KFWD 041401
RWRTX
NORTH TEXAS HOURLY WEATHER ROUNDUP
NATIONAL WEATHER SERVICE FORT WORTH TX
800 AM CST SUN DEC 04 2016

NOTE: "FAIR" INDICATES FEW OR NO CLOUDS BELOW 12,000 FEET WITH NO
SIGNIFICANT WEATHER AND/OR OBSTRUCTIONS TO VISIBILITY.

TXZ118-119-041500-
DALLAS/FORT WORTH METROPLEX

CITY           SKY/WX    TMP DP  RH WIND       PRES   REMARKS
DFW AIRPORT    CLOUDY    48  45  89 N10       30.02R
DALLAS LOVE    CLOUDY    49  46  90 N7        30.03R
FTW MEACHAM    CLOUDY    48  45  89 NW7       30.03S
DAL-EXECUTIVE  CLOUDY    48  47  96 N10       30.02S
FTW-ALLIANCE   CLOUDY    47  45  93 N6        30.03R
FTW-NAS-JRB    CLOUDY    49  46  90 N12       30.04S
FTW-SPINKS     CLOUDY    46  46 100 N12       30.05R
ARLINGTON      CLOUDY    48  46  93 NW12      30.04R
GRAND PRAIRIE  CLOUDY    46  46 100 NW5       30.05
ADDISON        CLOUDY    46  46 100 N8        30.03R
MESQUITE       CLOUDY    46  46 100 NW5       30.02R FOG
LANCASTER      CLOUDY    48  46  93 N7        30.04R
$$

TXZ091>094-102>105-117-120-121-131>134-041500-
NORTH CENTRAL TEXAS

CITY           SKY/WX    TMP DP  RH WIND       PRES   REMARKS
SHRMAN/DENISON CLOUDY    47  47 100 N8        30.05R
GAINESVILLE    CLOUDY    45  44  95 N6        30.07R
BOWIE          CLOUDY    46  45  97 NW8       30.06R
BRIDGEPORT     CLOUDY    46  46 100 N7        30.07R
DECATUR        CLOUDY    45  45 100 NW7       30.04S
DENTON         CLOUDY    47  46  97 N8        30.03F
MCKINNEY       CLOUDY    47  46  97 N8        30.03R
BONHAM         CLOUDY    45  45 100 N3        30.03R
GREENVILLE     CLOUDY    46  45  93 CALM      30.03R
ROCKWALL       CLOUDY    46  46 100 N5        30.03S
TERRELL        LGT RAIN  48  45  89 N6        30.03R
WAXAHACHIE     CLOUDY    47  47 100 N8        30.03R
CLEBURNE       CLOUDY    46  46 100 N10G16    30.04R
GRANBURY       CLOUDY    48  46  91 NW7       30.05S
$$

TXZ083>090-098>101-113>116-127>130-139>142-154-155-041500-
WESTERN NORTH TEXAS

CITY           SKY/WX    TMP DP  RH WIND       PRES   REMARKS
WICHITA FALLS  CLOUDY    45  43  93 N7        30.06R
WF-KICKAPOO    CLOUDY    46  44  94 N5        30.08R
VERNON         CLEAR     44  39  85 NW5       30.08R
ABILENE        CLOUDY    44  43  96 N12       30.07R WCI  38
ABILENE-DYESS  CLOUDY    44  44  97 N6        30.06R
CISCO          CLOUDY    45  45 100 N9        30.04R WCI  40
BRECKENRIDGE   CLOUDY    47  46  96 N9        30.06R
GRAHAM         CLOUDY    45  45 100 NW6       30.05R
MINERAL WELLS  CLOUDY    46  44  93 N9        30.03R
STEPHENVILLE   CLOUDY    46  44  93 N12       30.05R
COMANCHE       CLOUDY    46  46 100 N7        30.04R
COLEMAN        CLOUDY    46  44  92 N10       30.04R
$$

TXZ143>147-156>162-174-175-041500-
CENTRAL TEXAS

CITY           SKY/WX    TMP DP  RH WIND       PRES   REMARKS
WACO           CLOUDY    48  48 100 N12       30.00S
WACO-MCGREGOR  CLOUDY    48  48 100 N6        30.01S FOG
HILLSBORO      CLOUDY    48  47  97 NW10      30.03R
CORSICANA      CLOUDY    50  48  93 N10       30.02R
MEXIA          CLOUDY    47  46  97 NW8       29.99R
HEARNE         DRIZZLE   49  48  97 NW9       30.01R
CAMERON        CLOUDY    50  48  94 N7        29.99R
TEMPLE         CLOUDY    48  47  96 N9        30.01R
KILLEEN        CLOUDY    48  47  98 N9        30.00R
KILLEEN-SKYLRK CLOUDY    48  47  96 N6        30.01
FORT HOOD        N/A    N/A N/A N/A N10         N/A
GATESVILLE     CLOUDY    48  48 100 N9        30.03R
HAMILTON       CLOUDY    47  47 100 N12       30.02R
$$

TXZ095>097-106>112-122>126-135>138-148>153-164>167-041500-
EAST TEXAS

CITY           SKY/WX    TMP DP  RH WIND       PRES   REMARKS
PARIS          CLOUDY    46  43  87 N8        30.02R
SULPHUR SPRNGS CLOUDY    47  47  99 NE6       30.04R
MOUNT PLEASANT CLOUDY    47  47 100 N5        30.02S
GILMER         DRIZZLE   46  45  98 NW5       30.00R
MINEOLA        CLOUDY    46  46 100 N6        30.02R FOG
TYLER          CLOUDY    47  46  97 NW7       30.01R
LONGVIEW       LGT RAIN  47  47 100 N5        29.96F
MARSHALL       CLOUDY    45  43  93 N5        30.00F
ATHENS         CLOUDY    46  46 100 N3        29.99S
PALESTINE      DRIZZLE   48  48 100 N5        30.02R
JACKSONVILLE   FOG       47  47 100 CALM      30.01R VSB 1/4
HENDERSON      CLOUDY    46  46 100 N3        29.99R FOG
CENTER         CLOUDY    49  48  96 NW5       30.00R FOG
NACOGDOCHES    CLOUDY    48  46  93 E5        29.98R
LUFKIN         LGT RAIN  48  47  96 NW5       30.00R FOG
$$

SUPPLEMENTAL OBSERVATIONS (CENTRAL)

CITY           SKY/WX    TMP DP  RH WIND       PRES   REMARKS
$$

SUPPLEMENTAL OBSERVATIONS (WEST)

CITY           SKY/WX    TMP DP  RH WIND       PRES   REMARKS
$$

SUPPLEMENTAL OBSERVATIONS (EAST)

CITY           SKY/WX    TMP DP  RH WIND       PRES   REMARKS
$$

SUPPLEMENTAL OBSERVATIONS ARE A COLLECTION OF AUTOMATED INSTRUMENTS
THAT ARE MAINTAINED BY A VARIETY OF FEDERAL AND STATE AGENCIES.
CERTAIN ELEMENTS...SUCH AS HUMIDITY VALUES AND SUSTAINED WIND
SPEEDS...MAY BE APPROXIMATED.




USA.gov is the U.S. government's official web portal to all federal, state and local government web resources and services.